Location: Cicognara
(44.9500°N, 10.4667°E)
Time: 19:58:44
(UTC+00:00)

Okean 1-7 Rocket - Visible Passes

Search period start: 21 January 2022 00:00
Search period end: 31 January 2022 00:00
Orbit: 615 x 650 km, 82.5° (Epoch: 21 January)

Date Brightness Start Highest point End Pass type
(mag) Time Alt. Az. Time Alt. Az. Time Alt. Az.
21 Jan 4.2 05:49:02 10° N 05:53:23 58° ENE 05:57:42 10° SSE visible
22 Jan 6.6 04:34:25 10° NE 04:36:19 12° ENE 04:38:12 10° E visible
22 Jan 3.5 06:10:37 10° NNW 06:14:59 68° W 06:19:20 10° S visible
23 Jan 5.9 04:54:42 10° NNE 04:58:14 23° ENE 05:01:46 10° SE visible
23 Jan 6.1 19:07:23 10° SSW 19:08:01 14° SSW 19:08:01 14° SSW visible
24 Jan 4.7 05:15:48 10° N 05:20:02 45° ENE 05:24:14 10° SSE visible
24 Jan 5.1 17:51:39 10° SSE 17:53:31 20° SE 17:53:31 20° SE visible
24 Jan 6.1 19:29:40 10° SW 19:31:03 17° WSW 19:31:03 17° WSW visible
25 Jan 3.5 05:37:15 10° N 05:41:40 88° W 05:46:04 10° S visible
25 Jan 3.6 18:12:31 10° S 18:16:38 55° ESE 18:16:38 55° ESE visible
25 Jan 6.5 19:52:46 10° WSW 19:54:10 14° W 19:54:10 14° W visible
26 Jan 6.2 04:21:42 10° NNE 04:24:50 19° ENE 04:27:56 10° ESE visible
26 Jan 3.9 05:59:02 10° NNW 06:03:11 42° W 06:07:19 10° SSW visible
26 Jan 5.4 16:59:34 10° E 17:00:57 11° E 17:02:17 10° ENE visible
26 Jan 3.7 18:34:00 10° SSW 18:38:28 72° W 18:39:49 43° N visible
27 Jan 5.2 04:42:36 10° N 04:46:39 35° ENE 04:50:41 10° SE visible
27 Jan 4.7 17:18:48 10° SE 17:22:14 22° E 17:25:31 11° NE visible
27 Jan 5.1 18:56:03 10° SW 19:00:09 35° WNW 19:03:04 17° NNW visible
28 Jan 3.8 05:03:57 10° N 05:08:21 72° E 05:12:43 10° SSE visible
28 Jan 3.9 17:39:25 10° SSE 17:43:37 43° E 17:47:50 10° NNE visible
28 Jan 6.2 19:18:48 10° WSW 19:21:59 19° WNW 19:25:10 10° NNW visible
29 Jan 6.5 03:48:49 10° NNE 03:51:23 15° ENE 03:53:55 10° ESE visible
29 Jan 3.6 05:25:36 10° NNW 05:29:54 55° W 05:34:12 10° S visible
29 Jan 3.5 18:00:41 10° S 18:05:08 88° E 18:09:36 10° N visible
30 Jan 5.6 04:09:27 10° NNE 04:13:16 28° ENE 04:17:03 10° SE visible
30 Jan 4.5 05:47:37 10° NNW 05:51:20 27° W 05:55:03 10° SSW visible
30 Jan 4.7 18:22:31 10° SSW 18:26:47 45° WNW 18:31:03 10° N visible
